Погода в Раздольном

Россия / Камчатский край     53°16′09″N   158°17′16″E
темп.,
°C
ветер,
м/с
пор.,
м/с
влажн.,
%
обл.,
%
осадки,
мм/ч
давл.,
гПа
погр.,
м
19 мая, ср
ср1900:00+6сз34730 0.0 1008134
03:00+3сз458520 0.0 1009201
06:00+3сз348571 0.0 1010131
09:00+8сз126369 0.0 1010280
12:00+14з393946 0.0 10091357
15:00+16зюз1017377 0.0 10102030
18:00+13зюз4144750 0.1 10101482
21:00+12зюз124859 0.0 101085
20 мая, чт
чт2000:00+10сз12565 0.0 101239
03:00+7зсз2263100 0.0 101241
06:00+6зсз226420 0.0 101233
09:00+11з25433 0.0 1012387
12:00+14зюз483362 0.0 10101416
15:00+15з7123933 0.0 10101372
18:00+15зсз474349 0.0 10101093
21:00+12зсз345237 0.0 1011639
21 мая, пт
пт2100:00+10зсз336379 0.0 101056
03:00+8зсз336628 0.0 101043
06:00+8сз226598 0.0 100925
09:00+11ю124896 0.0 1008269
12:00+13ююв4345100 0.0 1006745
15:00+13ю1347100 0.0 1004865
18:00+13юз2544100 0.1 10031398
21:00+10ююз235766 0.0 1002433
22 мая, сб
сб2200:00+7зсз466934 0.0 1001526
03:00+4з476851 0.0 1001466
06:00+3з4106859 0.0 10011038
09:00+4з7115854 0.0 10011254
12:00+6з14165254 0.0 10001487
15:00+6з16165110 0.0 10001363
18:00+6з15154936 0.0 9991304
21:00+3з711674 0.0 1000639
23 мая, вс
вс2300:00+2з46735 0.0 1001438
03:00+1зсз45725 0.0 1002127
06:00+1зсз45766 0.0 1003155
09:00+4зсз46522 0.0 1004782
12:00+8зсз57410 0.0 10041116
15:00+12зсз56353 0.0 10051578
18:00+12зсз56362 0.0 10061479
21:00+10зсз454688 0.0 1008399